Weather Roundup
Issued by NWS Corpus Christi, TX

Home | Current Version | Previous Version | Text Only | Print | Product List | Glossary On
Versions: 1 2 3 4 5 6 7 8 9 10 11 12 13 14 15 16 17 18 19 20 21 22 23 24 25 26 27 28 29 30 31 32 33 34 35 36 37 38 39 40 41 42 43 44 45 46 47 48 49 50
542
ASUS44 KCRP 042310
HRRCRP

SOUTH TEXAS REGIONAL WEATHER ROUNDUP
NATIONAL WEATHER SERVICE CORPUS CHRISTI TX
500 PM CST SUN DEC 04 2016


TXZ229>244-050000-
...CORPUS CHRISTI AREA OBSERVATIONS...

CITY           SKY/WX    TMP DP  RH WIND       PRES   REMARKS
CORPUS CHRISTI CLOUDY    55  53  93 NE16G23   29.89R
NAS CORPUS CHR CLOUDY    55  55 100 NE14G25   29.86F
ROCKPORT         N/A    N/A N/A N/A MISG      29.88F
KINGSVILLE NAS LGT RAIN  55  55 100 NE14      29.90R FOG
ALICE          RAIN      53  52  96 MISG      29.90R FOG
ORANGE GROVE   LGT RAIN  54  54 100 NE10      29.92R FOG
FALFURRIAS     CLOUDY    55  53  94 N9        29.89S
$$

...VICTORIA AREA OBSERVATIONS...

CITY           SKY/WX    TMP DP  RH WIND       PRES   REMARKS
VICTORIA       CLOUDY    52  51  97 N12       29.93S
BEEVILLE       LGT RAIN  53  53 100 NE15      29.91R
PLEASANTON     LGT RAIN  52  50  93 N8        29.95R
SAN ANTONIO    CLOUDY    51  48  89 N8        29.97R
$$

...LAREDO AREA OBSERVATIONS...

CITY           SKY/WX    TMP DP  RH WIND       PRES   REMARKS
LAREDO         LGT RAIN  54  52  93 N10       29.94R FOG
COTULLA        LGT RAIN  54  51  90 NE14G20   29.93F FOG
DEL RIO        LGT RAIN  50  49  96 NW7       29.98F
MCALLEN        CLOUDY    58  55  90 N10       29.89S FOG
HEBBRONVILLE   LGT RAIN  51  50  97 NE7       29.91R
$$

...OTHER TEXAS OBSERVATIONS...

CITY           SKY/WX    TMP DP  RH WIND       PRES   REMARKS
BROWNSVILLE    CLOUDY    58  57  97 NW9       29.83F FOG
HOUSTON        CLOUDY    53  50  89 N8        29.94R
COL. STATION   CLOUDY    52  48  86 N13       29.95R
AUSTIN         CLOUDY    52  48  86 N17       29.96S
WACO           CLOUDY    51  46  83 N12       30.02R
FORT WORTH     CLOUDY    52  42  69 N12       30.03R
WICHITA FALLS  PTCLDY    50  40  68 NE3       30.05S
LUBBOCK        PTCLDY    51  26  37 E6        30.04F
EL PASO        MOSUNNY   57  28  33 N8        30.01F
$$

...MARINE OBSERVATIONS...

STATION/POSITION TIME  SKY/WX   TEMP    WIND        PRES    VSBY  WAVE   SWELL
                                AIR SEA DIR/SP/G                  HT/PER HT/PER
                 (UTC)          (F)     (DEG/KT/KT) (MB)    (MI)  (FT/S) (FT/S)
PORT ARANSAS     2200            56 65   10/ 20/ 23 1011.4R
BUOY 90 E PORT A 2250            69 77   30/ 19/ 21 1010.5F         7/ 6
BUOY 45 SE BAFFI 2250            71 76   50/ 21/ 27 1009.1R         8/ 7   2/13
BUOY 200 E PT IS 2250            79 79  140/  6/  6 1009.6R         5/ 8   5/ 8
BUOY 15 E GALVES 2250            58 68   10/ 19/ 23 1012.0F         4/ 4   2/ 7
$$




USA.gov is the U.S. government's official web portal to all federal, state and local government web resources and services.